Regional Weather Roundup
Issued by NWS

Home | Current Version | Previous Version | Text Only | Print | Product List | Glossary Off
Versions: 1 2 3 4 5 6 7 8 9 10 11 12 13 14 15 16 17 18 19 20 21 22 23 24 25 26 27

000
ASUS45 KTFX 281010
RWRMT
MONTANA REGIONAL WEATHER ROUNDUP
NATIONAL WEATHER SERVICE GREAT FALLS MT
400 AM MDT THU JUL 28 2016

NOTE: "FAIR" INDICATES FEW OR NO CLOUDS BELOW 12000 FEET WITH NO
SIGNIFICANT WEATHER AND/OR OBSTRUCTIONS TO VISIBILITY.

MTZ001>007-043-281100-
WEST OF THE DIVIDE

CITY           SKY/WX    TMP DP  RH WIND       PRES   REMARKS
KALISPELL      CLEAR     58  54  86 N10       30.13R
MISSOULA       CLEAR     64  47  53 MISG      30.14R
BUTTE          CLEAR     53  44  71 SE3       30.27R
MULLAN PASS    CLEAR     64  42  44 CALM      30.28R
DEER LODGE       N/A     59  52  77 W10       30.25S
EUREKA           N/A     54  52  94 CALM        N/A
HAMILTON         N/A     61  48  63 CALM      30.14S
LIBBY            N/A     57  48  72 CALM      30.14R
PLAINS           N/A     59  55  86 CALM      30.12S
RONAN            N/A     56  50  80 CALM      30.17R
THOMPSON FALLS   N/A     56  56 100 CALM      30.16R VSB 0
$$

MTZ008-052>055-281100-
SOUTHWEST MONTANA

CITY           SKY/WX    TMP DP  RH WIND       PRES   REMARKS
BOZEMAN        PTCLDY    57  52  83 SE6       30.20S
DILLON         CLEAR     55  49  80 S3        30.22R
W YELLOWSTONE  CLOUDY    50  46  87 NE5       30.32S
ENNIS          CLEAR     48  43  81 E5        30.28R
THREE FORKS      N/A     58  55  89 CALM      30.18R
TWIN BRIDGES     N/A     56  45  66 S2        30.17R
$$

MTZ009-010-012-014-046-048-049-054-281100-
EAST SLOPES AND CENTRAL MONTANA

CITY           SKY/WX    TMP DP  RH WIND       PRES   REMARKS
CUT BANK       PTCLDY    53  52  96 SW6       30.19R
GREAT FALLS    CLOUDY    58  51  78 CALM      30.19S
MALMSTROM AFB  CLOUDY    58  55  88 E7        30.19S
HELENA         PTCLDY    64  52  64 W9        30.20F
CHOTEAU          N/A     61  55  82 SW9       30.21S
CONRAD           N/A     56  56 100 S1        30.19R
$$

MTZ011-013-016-021-045-047-050-051-281100-
NORTH CENTRAL MONTANA

CITY           SKY/WX    TMP DP  RH WIND       PRES   REMARKS
HAVRE          CLEAR     56  54  93 SW6       30.17R
N BAR RANCH    MOCLDY    54  52  94 NW5       30.24F
CHINOOK          N/A     57  57 100 NE3       30.16S
$$

MTZ017>020-022>027-061-062-281100-
NORTHEAST MONTANA

CITY           SKY/WX    TMP DP  RH WIND       PRES   REMARKS
GLASGOW        PTCLDY    58  56  93 NE10      30.14F
JORDAN           N/A     58  57  97 NW7       30.14F
SIDNEY         CLOUDY    63  61  93 E5        30.13S
WOLF POINT     MOCLDY    60  58  92 NE3       30.14F
PLENTYWOOD       N/A     59  57  94 NE5       30.16F
SCOBEY           N/A     48  35  60 CALM      30.14F VSB 1
$$

MTZ028>42-056>058-281100-
SOUTHCENTRAL AND SOUTHEAST MONTANA

CITY           SKY/WX    TMP DP  RH WIND       PRES   REMARKS
BAKER          CLOUDY    60  58  92 CALM      30.15F
BILLINGS       TSTM      63  59  87 W18       30.22R
LIVINGSTON     PTCLDY    62  52  69 E9G18     30.23S
MILES CITY     CLOUDY    61  57  87 N10       30.11S
EKALAKA          N/A     59  56  89 NE10      30.12R
FORSYTH          N/A     61  61 100 CALM      30.12F
LAUREL           N/A     61  54  77 NW6       30.20R
ROUNDUP          N/A     60  55  83 MISG      30.10R
$$

REGIONAL REPORTS...DAKOTAS

CITY           SKY/WX    TMP DP  RH WIND       PRES   REMARKS
WILLISTON      CLOUDY    63  59  87 NE5       30.15S
MINOT          CLOUDY    62  57  83 CALM      30.15S
DICKINSON      FOG       59  59 100 E5        30.12S VSB 1/4
BEACH            N/A     55  55 100 NE5       30.16S
CROSBY         FOG       50  50 100 N3        30.19S VSB 1/4
WATFORD CITY     N/A    N/A N/A N/A MISG        N/A
BISMARCK       CLOUDY    63  58  83 E5        30.14R
GRAND FORKS    PTCLDY    58  56  93 N5        30.09S
FARGO          CLOUDY    63  60  90 N5        30.05F
BUFFALO SD       N/A     59  58  96 NE10      30.06S
RAPID CITY     RAIN      65  59  81 W9        30.15R
$$

REGIONAL REPORTS...WYOMING/IDAHO/WASHINGTON

CITY           SKY/WX    TMP DP  RH WIND       PRES   REMARKS
GILLETTE       PTCLDY    60  55  83 S7        30.15F
SHERIDAN       CLOUDY    64  57  78 NW13      30.19R
BUFFALO WY     LGT RAIN  62  55  77 W10       30.21S
CODY           MOCLDY    59  52  77 CALM      30.25F
YELLOWSTONE LA   N/A     45  44  97 W5        30.39F
IDAHO FALLS    CLEAR     57  45  64 N5        30.13S
SALMON         CLEAR     57  45  62 CALM      30.12R
BOISE          CLEAR     70  47  43 CALM      30.02R
SPOKANE        CLEAR     67  47  48 N5        30.06S
$$

REGIONAL REPORTS...ALBERTA

CITY           SKY/WX    TMP DP  RH WIND       PRES   REMARKS
EDMONTON       PTCLDY    59  55  88 W3        30.11F
CALGARY        PTCLDY    57  52  82 CALM      30.19S
LETHBRIDGE     MOCLDY    59  57  94 W7        30.15S
MEDICINE HAT   CLEAR     59  59 100 CALM      30.14R
WATERTON GATE    N/A     46  45  93 SW6         N/A
CARDSTON         N/A     52  50  93 SW3         N/A
MILK RIVER       N/A     55  55 100 NW6         N/A
ONEFOUR          N/A     57  55  94 NE9         N/A
$$

REGIONAL REPORTS...SASKATCHEWAN

CITY           SKY/WX    TMP DP  RH WIND       PRES   REMARKS
SWIFT CURRENT  CLEAR     52  50  93 S7        30.16S
REGINA         CLEAR     54  52  94 SE6       30.18S
SASKATOON      PTCLDY    54  54 100 S3        30.15F
CYPRESS HILLS    N/A     55  50  82 S5          N/A
VAL MARIE        N/A     48  46  93 NE2         N/A
ROCKGLEN         N/A     55  54  94 E1          N/A
ASSINIBOIA       N/A     57  55  94 S1          N/A
$$




USA.gov is the U.S. government's official web portal to all federal, state and local government web resources and services.